Weather History for Two Harbors, MN

Change the Weather History Date:

Monday, May 13, 2013

  Actual Average Record
Temperature  
Mean Temperature 38 °F -  
Max Temperature 53 °F 56 °F 77 °F (1949)
Min Temperature 24 °F 38 °F 6 °F (1998)
Degree Days  
Heating Degree Days 26    
Moisture  
Dew Point 23 °F    
Average Humidity 51    
Maximum Humidity 74    
Minimum Humidity 30    
Precipitation  
Precipitation 0.00 in - - ()
Sea Level Pressure  
Sea Level Pressure 29.95 in    
Wind  
Wind Speed 4 mph (SE)    
Max Wind Speed 13 mph    
Max Gust Speed 16 mph    
Visibility 10 miles    
Events      
Averages and records for this station are not official NWS values.
T = Trace of Precipitation, MM = Missing Value Source: NWS Daily Summary

Daily Weather History Graph

Daily Weather History Graph

Search for Another Location

Airport:

Trip Planner

Search our weather history database for the weather conditions in past years. The results will help you decide how hot, cold, wet, or windy it might be!

Date:

Astronomy

May. 13, 2013 Rise Set
Actual Time 5:33 AM CDT 8:33 PM CDT
Civil Twilight 4:57 AM CDT 9:09 PM CDT
Nautical Twilight 4:11 AM CDT 9:56 PM CDT
Astronomical Twilight 3:16 AM CDT 10:52 PM CDT
Moon 8:18 AM CDT (5/13) 11:43 PM CDT (5/13)
Length of Visible Light 16h 11m
Length of Day
15h 00m
Waxing Crescent, 12% of the Moon is Illuminated
May 13
Waxing Crescent
May 17
First Quarter
May 24
Full
May 31
Last Quarter
Jun 8
New

Hourly Weather History & Observations

Time (CDT) Temp. Windchill Dew Point Humidity Pressure Visibility Wind Dir Wind Speed Gust Speed Precip Events Conditions
12:11 AM 26.6 °F - 19.4 °F 74% 30.11 in 10.0 mi Calm Calm - N/A   Clear
12:32 AM 26.6 °F - 19.4 °F 74% 30.11 in 10.0 mi Calm Calm - N/A   Clear
12:51 AM 26.6 °F - 19.4 °F 74% 30.10 in 10.0 mi Calm Calm - N/A   Clear
1:11 AM 26.6 °F - 19.4 °F 74% 30.09 in 10.0 mi Calm Calm - N/A   Clear
1:32 AM 26.6 °F - 19.4 °F 74% 30.09 in 10.0 mi Calm Calm - N/A   Clear
1:51 AM 26.6 °F 22.6 °F 19.4 °F 74% 30.09 in 10.0 mi WNW 3.5 mph - N/A   Clear
2:11 AM 26.6 °F 22.6 °F 19.4 °F 74% 30.09 in 10.0 mi WNW 3.5 mph - N/A   Clear
2:32 AM 28.4 °F 23.3 °F 17.6 °F 64% 30.09 in 10.0 mi West 4.6 mph - N/A   Clear
2:51 AM 26.6 °F 22.6 °F 19.4 °F 74% 30.08 in 10.0 mi WNW 3.5 mph - N/A   Clear
3:11 AM 26.6 °F - 19.4 °F 74% 30.08 in 10.0 mi Calm Calm - N/A   Clear
3:32 AM 24.8 °F 20.5 °F 17.6 °F 74% 30.08 in 10.0 mi WNW 3.5 mph - N/A   Clear
3:51 AM 26.6 °F 21.2 °F 17.6 °F 69% 30.08 in 10.0 mi West 4.6 mph - N/A   Clear
4:11 AM 26.6 °F - 17.6 °F 69% 30.08 in 10.0 mi Calm Calm - N/A   Clear
4:32 AM 26.6 °F 22.6 °F 17.6 °F 69% 30.08 in 10.0 mi West 3.5 mph - N/A   Clear
4:51 AM 28.4 °F 23.3 °F 17.6 °F 64% 30.08 in 10.0 mi West 4.6 mph - N/A   Clear
5:11 AM 28.4 °F 23.3 °F 17.6 °F 64% 30.08 in 10.0 mi West 4.6 mph - N/A   Clear
5:32 AM 24.8 °F - 17.6 °F 74% 30.08 in 10.0 mi Calm Calm - N/A   Clear
5:51 AM 26.6 °F 22.6 °F 17.6 °F 69% 30.08 in 10.0 mi West 3.5 mph - N/A   Clear
6:11 AM 28.4 °F - 17.6 °F 64% 30.08 in 10.0 mi Calm Calm - N/A   Clear
6:32 AM 30.2 °F - 17.6 °F 60% 30.08 in 10.0 mi Calm Calm - N/A   Clear
6:51 AM 32.0 °F - 23.0 °F 69% 30.09 in 10.0 mi Calm Calm - N/A   Clear
7:11 AM 37.4 °F 33.8 °F 21.2 °F 52% 30.08 in 10.0 mi SW 4.6 mph - N/A   Clear
7:32 AM 39.2 °F 34.2 °F 21.2 °F 49% 30.09 in 10.0 mi SW 6.9 mph - N/A   Clear
7:51 AM 41.0 °F 36.4 °F 19.4 °F 42% 30.09 in 10.0 mi SSW 6.9 mph - N/A   Clear
8:11 AM 41.0 °F 35.8 °F 19.4 °F 42% 30.09 in 10.0 mi SSW 8.1 mph - N/A   Clear
8:31 AM 42.8 °F 37.0 °F 19.4 °F 39% 30.09 in 10.0 mi South 10.4 mph - N/A   Clear
8:51 AM 44.6 °F 39.7 °F 19.4 °F 37% 30.08 in 10.0 mi SSW 9.2 mph - N/A   Clear
9:11 AM 46.4 °F 42.9 °F 21.2 °F 37% 30.07 in 10.0 mi SSW 6.9 mph - N/A   Clear
9:31 AM 48.2 °F - 21.2 °F 34% 30.06 in 10.0 mi South 8.1 mph - N/A   Clear
9:51 AM 48.2 °F - 21.2 °F 34% 30.05 in 10.0 mi SSW 11.5 mph - N/A   Clear
10:11 AM 46.4 °F 41.5 °F 21.2 °F 37% 30.04 in 10.0 mi South 10.4 mph - N/A   Clear
10:31 AM 48.2 °F - 21.2 °F 34% 30.04 in 10.0 mi South 9.2 mph - N/A   Clear
10:51 AM 48.2 °F - 21.2 °F 34% 30.02 in 10.0 mi South 8.1 mph 16.1 mph N/A   Clear
11:11 AM 50.0 °F - 21.2 °F 32% 30.01 in 10.0 mi South 8.1 mph - N/A   Clear
11:31 AM 50.0 °F - 21.2 °F 32% 30.00 in 10.0 mi SSE 12.7 mph 16.1 mph N/A   Clear
11:51 AM 51.8 °F - 23.0 °F 33% 29.99 in 10.0 mi South 11.5 mph - N/A   Clear
12:11 PM 51.8 °F - 23.0 °F 33% 29.98 in 10.0 mi SSE 6.9 mph - N/A   Clear
12:31 PM 51.8 °F - 21.2 °F 30% 29.97 in 10.0 mi SE 8.1 mph - N/A   Clear
12:51 PM 51.8 °F - 21.2 °F 30% 29.96 in 10.0 mi SE 9.2 mph - N/A   Clear
1:11 PM 51.8 °F - 23.0 °F 33% 29.95 in 10.0 mi ESE 5.8 mph - N/A   Clear
1:31 PM 51.8 °F - 21.2 °F 30% 29.95 in 10.0 mi ESE 5.8 mph - N/A   Clear
1:52 PM 51.8 °F - 23.0 °F 33% 29.94 in 10.0 mi East 6.9 mph - N/A   Clear
2:11 PM 50.0 °F - 23.0 °F 35% 29.94 in 10.0 mi East 5.8 mph - N/A   Scattered Clouds
2:31 PM 50.0 °F - 23.0 °F 35% 29.92 in 10.0 mi East 6.9 mph - N/A   Clear
3:31 PM 46.4 °F 42.4 °F 26.6 °F 46% 29.89 in 10.0 mi ENE 8.1 mph - N/A   Mostly Cloudy
3:52 PM 46.4 °F 42.9 °F 28.4 °F 50% 29.88 in 10.0 mi ENE 6.9 mph - N/A   Mostly Cloudy
4:11 PM 50.0 °F - 28.4 °F 43% 29.86 in 10.0 mi East 4.6 mph - N/A   Scattered Clouds
4:31 PM 51.8 °F - 26.6 °F 38% 29.85 in 10.0 mi SE 8.1 mph - N/A   Clear
4:52 PM 53.6 °F - 26.6 °F 35% 29.84 in 10.0 mi ESE 5.8 mph - N/A   Clear
5:11 PM 53.6 °F - 26.6 °F 35% 29.83 in 10.0 mi ESE 8.1 mph - N/A   Clear
5:31 PM 53.6 °F - 28.4 °F 38% 29.82 in 10.0 mi SE 8.1 mph - N/A   Clear
5:52 PM 53.6 °F - 28.4 °F 38% 29.82 in 10.0 mi SE 5.8 mph - N/A   Clear
6:31 PM 51.8 °F - 28.4 °F 41% 29.78 in 10.0 mi SE 11.5 mph - N/A   Clear
7:11 PM 51.8 °F - 28.4 °F 41% 29.77 in 10.0 mi East 6.9 mph - N/A   Clear
7:31 PM 48.2 °F - 28.4 °F 46% 29.77 in 10.0 mi East 4.6 mph - N/A   Clear
7:52 PM 46.4 °F 44.3 °F 28.4 °F 50% 29.76 in 10.0 mi NE 4.6 mph - N/A   Clear
8:11 PM 46.4 °F 44.3 °F 28.4 °F 50% 29.75 in 10.0 mi ENE 4.6 mph - N/A   Clear
8:31 PM 44.6 °F 41.4 °F 28.4 °F 53% 29.74 in 10.0 mi NE 5.8 mph - N/A   Clear
8:52 PM 42.8 °F 38.6 °F 26.6 °F 53% 29.74 in 10.0 mi NE 6.9 mph - N/A   Clear
9:11 PM 42.8 °F 41.1 °F 26.6 °F 53% 29.74 in 10.0 mi NE 3.5 mph - N/A   Clear
9:31 PM 41.0 °F 36.4 °F 26.6 °F 57% 29.73 in 10.0 mi NNE 6.9 mph - N/A   Clear
9:52 PM 41.0 °F 37.1 °F 24.8 °F 53% 29.72 in 10.0 mi NE 5.8 mph - N/A   Clear
10:11 PM 41.0 °F 37.1 °F 24.8 °F 53% 29.71 in 10.0 mi NNE 5.8 mph - N/A   Mostly Cloudy
10:31 PM 41.0 °F - 26.6 °F 57% 29.71 in 10.0 mi Calm Calm - N/A   Mostly Cloudy
10:52 PM 39.2 °F 37.0 °F 26.6 °F 61% 29.70 in 10.0 mi NNE 3.5 mph - N/A   Scattered Clouds
11:11 PM 39.2 °F 37.0 °F 26.6 °F 61% 29.69 in 10.0 mi NNE 3.5 mph - N/A   Clear
11:31 PM 39.2 °F - 26.6 °F 61% 29.68 in 10.0 mi Calm Calm - N/A   Clear
11:51 PM 39.2 °F 35.9 °F 26.6 °F 61% 29.67 in 10.0 mi North 4.6 mph - N/A   Clear